Weather History for KGUY - July, 2012

Change the Weather History Date:

Sunday, July 1, 2012

  Actual Average Record
Temperature  
Mean Temperature 83 °F 78 °F  
Max Temperature 97 °F 93 °F 100 °F (2011)
Min Temperature 68 °F 64 °F 57 °F (2007)
Degree Days  
Heating Degree Days 0 0  
Month to date heating degree days 0 0  
Since 1 June heating degree days 0 8  
Since 1 July heating degree days 0 0  
Cooling Degree Days 18 13  
Month to date cooling degree days 18 13  
Year to date cooling degree days 752 401  
Since 1 June cooling degree days 487 293  
Growing Degree Days 32 (Base 50)    
Moisture  
Dew Point 59 °F    
Average Humidity 58    
Maximum Humidity 90    
Minimum Humidity 25    
Precipitation  
Precipitation 0.24 in 0.08 in 0.51 in (2005)
Month to date precipitation 0.24 0.08  
Year to date precipitation 6.33 9.27  
Snow  
Snow 0.00 in - - ()
Month to date snowfall 0.0  
Since 1 June snowfall 0.0  
Since 1 July snowfall 0.0  
Snow Depth 0.00 in    
Sea Level Pressure  
Sea Level Pressure 29.82 in    
Wind  
Wind Speed 13 mph (SSE)    
Max Wind Speed 32 mph    
Max Gust Speed 51 mph    
Visibility 10 miles    
Events Rain , Thunderstorm    
T = Trace of Precipitation, MM = Missing Value Source: NWS Daily Summary

Daily Weather History Graph

Daily Weather History Graph

Search for Another Location

Airport or City:

Trip Planner

Search our weather history database for the weather conditions in past years. The results will help you decide how hot, cold, wet, or windy it might be!

Date:

Astronomy

Jul. 01, 2012 Rise Set
Actual Time 6:31 AM CDT 9:08 PM CDT
Civil Twilight 6:00 AM CDT 9:39 PM CDT
Nautical Twilight 5:22 AM CDT 10:16 PM CDT
Astronomical Twilight 4:40 AM CDT 10:59 PM CDT
Moon 7:14 PM CDT (7/1) 4:19 AM CDT (7/1)
Length of Visible Light 15h 38m
Length of Day
14h 37m
Waxing Gibbous, 94% of the Moon is Illuminated
Jul 1
Waxing Gibbous
Jul 3
Full
Jul 10
Last Quarter
Jul 18
New
Jul 26
First Quarter

Hourly Weather History & Observations

Time (CDT) Temp. Heat Index Dew Point Humidity Pressure Visibility Wind Dir Wind Speed Gust Speed Precip Events Conditions
12:40 AM 84.2 °F 83.5 °F 57.2 °F 40% 29.98 in 10.0 mi NNE 8.1 mph - N/A Thunderstorm Mostly Cloudy
12:53 AM 78.1 °F - 61.0 °F 56% 29.82 in 10.0 mi ENE 16.1 mph 25.3 mph 0.00 in Rain , Thunderstorm Light Thunderstorms and Rain
1:53 AM 70.0 °F - 66.0 °F 87% 29.96 in 7.0 mi North 5.8 mph - 0.13 in Rain , Thunderstorm Light Thunderstorms and Rain
2:21 AM 73.4 °F - 57.2 °F 57% 30.05 in 7.0 mi South 17.3 mph 31.1 mph 0.13 in Rain , Thunderstorm Light Thunderstorms and Rain
2:43 AM 73.4 °F - 55.4 °F 53% 30.05 in 10.0 mi SE 17.3 mph 24.2 mph 0.13 in Rain Light Rain
2:53 AM 72.0 °F - 57.9 °F 61% 29.85 in 10.0 mi SSE 24.2 mph 29.9 mph 0.13 in   Mostly Cloudy
3:53 AM 73.0 °F - 57.0 °F 57% 29.77 in 10.0 mi South 21.9 mph 33.4 mph 0.00 in   Clear
4:53 AM 72.0 °F - 59.0 °F 64% 29.77 in 10.0 mi SSW 17.3 mph 27.6 mph N/A   Clear
5:53 AM 71.1 °F - 60.1 °F 68% 29.76 in 10.0 mi SW 11.5 mph - N/A   Clear
6:53 AM 69.1 °F - 59.0 °F 70% 29.76 in 10.0 mi Calm Calm - N/A   Clear
7:53 AM 73.9 °F - 59.0 °F 59% 29.78 in 10.0 mi East 5.8 mph - N/A   Clear
8:53 AM 73.9 °F - 61.0 °F 64% 29.85 in 10.0 mi SE 10.4 mph - N/A   Clear
9:53 AM 78.1 °F - 62.1 °F 58% 29.84 in 10.0 mi SE 10.4 mph - N/A   Clear
10:53 AM 80.1 °F 81.5 °F 63.0 °F 56% 29.83 in 10.0 mi South 13.8 mph 20.7 mph N/A   Clear
11:53 AM 84.0 °F 84.9 °F 63.0 °F 49% 29.84 in 10.0 mi South 12.7 mph 21.9 mph N/A   Clear
12:53 PM 88.0 °F 88.7 °F 63.0 °F 43% 29.82 in 10.0 mi South 13.8 mph 20.7 mph N/A   Clear
1:53 PM 91.0 °F 90.5 °F 60.1 °F 35% 29.81 in 10.0 mi South 9.2 mph - N/A   Clear
2:53 PM 93.9 °F 92.9 °F 57.9 °F 30% 29.78 in 10.0 mi South 12.7 mph 20.7 mph N/A   Clear
3:53 PM 96.1 °F 94.5 °F 55.9 °F 26% 29.75 in 10.0 mi SSE 11.5 mph 20.7 mph N/A   Clear
4:53 PM 96.1 °F 96.0 °F 60.1 °F 30% 29.74 in 10.0 mi SSE 11.5 mph 23.0 mph N/A   Partly Cloudy
5:53 PM 95.0 °F 93.7 °F 57.0 °F 28% 29.72 in 10.0 mi SSE 15.0 mph 25.3 mph N/A   Clear
6:53 PM 93.0 °F 92.7 °F 60.1 °F 33% 29.73 in 10.0 mi SSE 17.3 mph 26.5 mph N/A   Clear
7:53 PM 89.1 °F 88.0 °F 57.9 °F 35% 29.73 in 10.0 mi SSE 16.1 mph - N/A   Clear
8:53 PM 84.9 °F 84.2 °F 57.9 °F 40% 29.76 in 10.0 mi SSE 11.5 mph - N/A   Clear
9:53 PM 81.0 °F 80.8 °F 55.9 °F 42% 29.78 in 10.0 mi SSE 11.5 mph - N/A   Clear
10:53 PM 80.1 °F 80.4 °F 57.0 °F 45% 29.81 in 10.0 mi SSE 10.4 mph - N/A   Clear
11:53 PM 79.0 °F - 57.0 °F 47% 29.82 in 10.0 mi South 13.8 mph 21.9 mph N/A   Clear